Terminal Aerodrome Forecast
Issued by NWS Sterling, VA

Home | Current Version | Previous Version | Text Only | Print | Product List | Glossary On
Versions: 1 2 3 4 5 6 7 8 9 10 11 12 13 14 15 16 17 18 19 20 21 22 23 24 25 26 27 28 29
580
FTUS41 KLWX 232137 AAA
TAFBWI
TAF AMD
KBWI 232137Z 2322/2424 04014G28KT 2SM -RA OVC012
     FM240000 05015G24KT 1SM -RA OVC005
     FM240500 01010KT 1SM -SHRA OVC003
     FM241200 32012KT P6SM OVC010
     FM242100 31015G24KT P6SM BKN050
     FM242200 31014G22KT P6SM SCT050=

USA.gov is the U.S. government's official web portal to all federal, state and local government web resources and services.